Regional Weather Roundup
Issued by NWS

Home | Current Version | Previous Version | Graphics & Text | Print | Product List | Glossary On
Versions: 1 2 3 4 5 6 7 8 9 10 11 12 13 14 15 16 17 18 19 20 21 22 23 24 25 26 27 28 29 30 31 32 33 34 35 36 37 38 39 40 41 42 43 44 45 46 47 48 49 50
783
ASUS43 KLSX 260307
RWRMO

WEATHER SUMMARY FOR MISSOURI
NATIONAL WEATHER SERVICE SPRINGFIELD MO
1000 PM CDT SAT MAR 25 2017

NOTE: "FAIR" INDICATES FEW OR NO CLOUDS BELOW 12,000 FEET WITH NO
       SIGNIFICANT WEATHER AND/OR OBSTRUCTIONS TO VISIBILITY.
       CURRENT SKY AND/OR WEATHER CONDITIONS ARE NOT AVAILABLE FOR
       CHILLICOTHE AND FARMINGTON.

MOZ001>031-035>038-043-044-053-054-260400-
...NORTHERN AND WESTERN MISSOURI...

CITY           SKY/WX    TMP DP  RH WIND       PRES   REMARKS
KANSAS CTY INT CLOUDY    45  44  97 NW7       29.89S
KANSAS C DTWN  CLOUDY    48  44  86 NW8       29.89R
LEE`S SUMMIT   CLOUDY    49  46  90 NW10      29.88S
ST JOSEPH      CLOUDY    44  44 100 NW9       29.91S
CHILLICOTHE      N/A     47  46  97 N5        29.88R
KIRKSVILLE     CLOUDY    48  48 100 N10       29.83S FOG

$$
MOZ066>068-077>081-088>096-101>105-260400-
...SOUTHWEST MISSOURI...

CITY           SKY/WX    TMP DP  RH WIND       PRES   REMARKS
SPRINGFIELD    CLOUDY    47  43  86 W8        29.90S
JOPLIN         CLOUDY    47  44  90 W10       29.93S

$$
MOZ032>034-039>042-045>050-055>058-069>072-260400-
...CENTRAL MISSOURI...

CITY           SKY/WX    TMP DP  RH WIND       PRES   REMARKS
COLUMBIA       CLOUDY    52  52 100 SW10      29.83R
JEFFERSON CITY LGT RAIN  54  49  83 SW12      29.85R
ROLLA          CLOUDY    50  48  93 W17       29.86R
SEDALIA        LGT RAIN  52 N/A N/A W8        29.86R
WHITEMAN AFB   DRIZZLE   50  50 100 N7        29.85R
WARRENSBURG    CLOUDY    50  46  87 W8        29.87R
OSAGE BEACH    CLOUDY   N/A N/A N/A SW10      29.88S

$$
MOZ051-052-059>065-260400-
...EAST CENTRAL MISSOURI...

CITY           SKY/WX    TMP DP  RH WIND       PRES   REMARKS
ST LOUIS INTL  PTCLDY    57  53  86 S8        29.85R
SPIRIT OF STL  PTCLDY    56  53  90 SW9       29.83S
ST CHARLES     MOCLDY    56  54  93 SE8       29.83R

$$
MOZ072>076-082>087-097>100-106>115-260400-
...SOUTH CENTRAL AND SOUTHEAST MISSOURI...

CITY           SKY/WX    TMP DP  RH WIND       PRES   REMARKS
CAPE GIRARDEAU MOCLDY    58  55  90 S10       29.89R
FARMINGTON     CLOUDY    56  52  86 SW5       29.88R
POPLAR BLUFF   CLOUDY    59  51  75 W5        29.90R
WEST PLAINS    CLOUDY    51  47  86 W6        29.91S

$$




USA.gov is the U.S. government's official web portal to all federal, state and local government web resources and services.